Jackson, MI

1:48 PM EDT on October 19, 2019 (GMT -0400)
Jackson County-Reynolds

Weather History for KJXN - September, 2019

Change the Weather History Date:

Friday, September 20, 2019

  Actual Average Record
Temperature  
Mean Temperature 69 °F 60 °F  
Max Temperature 84 °F 71 °F 93 °F (1978)
Min Temperature 53 °F 49 °F 30 °F (1956)
Degree Days  
Heating Degree Days 0 6  
Month to date heating degree days 16 72  
Since 1 July heating degree days 29 107  
Cooling Degree Days 4 1  
Month to date cooling degree days 62 49  
Year to date cooling degree days 621 578  
Growing Degree Days 19 (Base 50)    
Moisture  
Dew Point 58 °F    
Average Humidity 77    
Maximum Humidity 96    
Minimum Humidity 40    
Precipitation  
Precipitation 0.00 in 0.13 in 0.55 in (1965)
Month to date precipitation 2.58 2.31  
Year to date precipitation 24.49 23.23  
Sea Level Pressure  
Sea Level Pressure 30.13 in    
Wind  
Wind Speed 1 mph ()    
Max Wind Speed 8 mph    
Max Gust Speed 13 mph    
Visibility 7.0 miles    
Events      
T = Trace of Precipitation, MM = Missing Value Source: Averaged Metar Reports

Daily Weather History Graph

Daily Weather History Graph

Search for Another Location

Airport or City:

Astronomy

Sep. 20, 2019 Rise Set
Actual Time 7:22 AM EDT 7:39 PM EDT
Civil Twilight 6:54 AM EDT 8:07 PM EDT
Nautical Twilight 6:21 AM EDT 8:39 PM EDT
Astronomical Twilight 5:48 AM EDT 9:13 PM EDT
Moon 11:21 PM EDT (9/20) 1:33 PM EDT (9/20)
Length of Visible Light 13h 12m
Length of Day
12h 16m
Waning Gibbous, 65% of the Moon is Illuminated
Sep 20
Waning Gibbous
Sep 21
Last Quarter
Sep 28
New
Oct 5
First Quarter
Oct 13
Full

Hourly Weather History & Observations

Time (EDT) Temp. Heat Index Dew Point Humidity Pressure Visibility Wind Dir Wind Speed Gust Speed Precip Events Conditions
12:56 AM 64.0 °F - 57.9 °F 80% 30.11 in 10.0 mi ESE 4.6 mph - N/A   Clear
1:56 AM 62.1 °F - 57.9 °F 86% 30.11 in 10.0 mi Calm Calm - N/A   Partly Cloudy
2:56 AM 60.1 °F - 57.0 °F 90% 30.12 in 10.0 mi Calm Calm - N/A   Clear
3:34 AM 59.0 °F - 55.9 °F 90% 30.13 in 1.8 mi Calm Calm - N/A   Clear
3:43 AM 59.0 °F - 57.0 °F 93% 30.13 in 3.0 mi Calm Calm - N/A   Clear
3:56 AM 59.0 °F - 57.0 °F 93% 30.12 in 4.0 mi Calm Calm - N/A   Clear
4:45 AM 59.0 °F - 57.0 °F 93% 30.13 in 2.5 mi Calm Calm - N/A   Clear
4:53 AM 57.2 °F - 55.4 °F 94% 30.13 in 5.0 mi Calm Calm - N/A   Clear
4:56 AM 57.9 °F - 55.9 °F 93% 30.12 in 5.0 mi Calm Calm - N/A   Clear
5:08 AM 55.9 °F - 54.0 °F 93% 30.13 in 1.8 mi Calm Calm - N/A   Clear
5:22 AM 57.9 °F - 55.9 °F 93% 30.14 in 3.0 mi Calm Calm - N/A   Clear
5:36 AM 57.0 °F - 55.0 °F 93% 30.14 in 1.5 mi Calm Calm - N/A   Clear
5:56 AM 57.0 °F - 55.0 °F 93% 30.13 in 2.5 mi Calm Calm - N/A   Clear
6:03 AM 57.9 °F - 55.9 °F 93% 30.14 in 4.0 mi Calm Calm - N/A   Clear
6:32 AM 53.1 °F - 52.0 °F 96% 30.14 in 1.8 mi Calm Calm - N/A   Clear
6:40 AM 55.0 °F - 53.1 °F 93% 30.14 in 3.0 mi Calm Calm - N/A   Clear
6:56 AM 55.9 °F - 54.0 °F 93% 30.14 in 6.0 mi Calm Calm - N/A   Clear
7:56 AM 57.0 °F - 55.0 °F 93% 30.15 in 6.0 mi Calm Calm - N/A   Clear
8:56 AM 64.9 °F - 62.1 °F 90% 30.16 in 7.0 mi Calm Calm - N/A   Clear
9:56 AM 73.0 °F - 64.0 °F 73% 30.16 in 10.0 mi SSW 3.5 mph - N/A   Clear
10:56 AM 78.1 °F - 64.0 °F 62% 30.16 in 10.0 mi Calm Calm - N/A   Clear
11:56 AM 79.0 °F - 59.0 °F 50% 30.16 in 10.0 mi WSW 3.5 mph - N/A   Clear
12:56 PM 81.0 °F 81.0 °F 57.0 °F 44% 30.15 in 10.0 mi Calm Calm - N/A   Clear
1:56 PM 82.0 °F 82.0 °F 57.9 °F 44% 30.13 in 10.0 mi West 4.6 mph - N/A   Clear
2:56 PM 84.0 °F 83.5 °F 57.9 °F 41% 30.12 in 10.0 mi SW 6.9 mph - N/A   Clear
3:56 PM 82.9 °F 82.6 °F 57.9 °F 42% 30.12 in 10.0 mi SW 3.5 mph - N/A   Clear
4:56 PM 82.9 °F 82.8 °F 59.0 °F 44% 30.11 in 10.0 mi Calm Calm - N/A   Clear
5:56 PM 84.0 °F 83.8 °F 59.0 °F 43% 30.12 in 10.0 mi Variable 3.5 mph - N/A   Clear
6:56 PM 81.0 °F 81.3 °F 59.0 °F 47% 30.12 in 10.0 mi South 3.5 mph - N/A   Clear
7:56 PM 73.9 °F - 62.1 °F 66% 30.13 in 10.0 mi NE 3.5 mph - N/A   Clear
8:56 PM 72.0 °F - 62.1 °F 71% 30.14 in 10.0 mi Calm Calm - N/A   Clear
9:56 PM 68.0 °F - 63.0 °F 84% 30.15 in 10.0 mi Calm Calm - N/A   Clear
10:56 PM 66.0 °F - 63.0 °F 90% 30.14 in 10.0 mi Calm Calm - N/A   Clear
11:56 PM 66.0 °F - 63.0 °F 90% 30.14 in 10.0 mi Calm Calm - N/A   Clear